NOAA 1 1 04793U 70106A 25021.77319646 -.00000041 00000-0 11053-4 0 9990 2 04793 101.4147 72.1433 0031259 268.8989 205.6372 12.54039156476584 NOAA 2 (ITOS-D) 1 06235U 72082A 25021.89731453 -.00000016 00000-0 19025-3 0 9993 2 06235 102.0236 29.4441 0004175 66.7704 353.6098 12.53194291390905 NOAA 3 1 06920U 73086A 25021.92442001 -.00000018 00000-0 21458-3 0 9996 2 06920 102.2883 25.8955 0006472 344.2904 23.3237 12.40377606318516 NOAA 4 1 07529U 74089A 25021.94412473 -.00000014 00000-0 20589-3 0 9998 2 07529 102.0016 24.3203 0009171 91.6104 282.9413 12.53190560295487 NOAA 5 1 09057U 76077A 25021.89794184 -.00000007 00000-0 29562-3 0 9993 2 09057 102.2409 1.1836 0009519 195.1046 220.9552 12.37812241191210 TIROS N 1 11060U 78096A 25021.94416072 .00000430 00000-0 22570-3 0 9997 2 11060 98.5070 59.8994 0009420 284.5159 75.4972 14.19083425606230 NOAA 6 1 11416U 79057A 25021.67343384 .00000804 00000-0 29795-3 0 9996 2 11416 98.6141 48.5231 0009507 340.1666 19.9148 14.34971007377582 NOAA 7 1 12553U 81059A 25021.78353593 .00000174 00000-0 10774-3 0 9996 2 12553 98.8651 86.9971 0010494 292.3347 67.6715 14.17655584252280 NOAA 8 1 13923U 83022A 25021.96347151 .00000481 00000-0 20565-3 0 9993 2 13923 98.7373 28.4377 0014099 316.8316 43.1760 14.29521082178022 NOAA 9 1 15427U 84123A 25021.96135105 .00000393 00000-0 21944-3 0 9995 2 15427 99.1251 30.8796 0014664 1.2454 18.5581 14.16830212 71024 NOAA 10 1 16969U 86073A 25021.91243400 .00000472 00000-0 20436-3 0 9999 2 16969 98.6631 12.0741 0012995 54.9187 5.6519 14.28893928996645 NOAA 11 1 19531U 88089A 25021.90301285 .00000261 00000-0 15421-3 0 9995 2 19531 98.5519 341.1948 0010561 331.4812 28.5784 14.15686096875137 NOAA 12 1 21263U 91032A 25021.92007762 .00000365 00000-0 16909-3 0 9994 2 21263 98.5769 14.3360 0014796 82.8893 277.3970 14.26523178752066 NOAA 13 1 22739U 93050A 25021.83044308 .00000343 00000-0 20460-3 0 9995 2 22739 98.6385 337.3901 0009978 143.7232 216.4620 14.13438340621130 NOAA 14 1 23455U 94089A 25021.95484869 .00000217 00000-0 13424-3 0 9999 2 23455 98.4507 12.0322 0010530 110.7653 249.4650 14.14528864550920 NOAA 15 1 25338U 98030A 25021.90238913 .00000415 00000-0 18860-3 0 9992 2 25338 98.5503 50.2768 0011010 49.5277 310.6862 14.26862397388371 NOAA 16 1 26536U 00055A 25021.92912659 .00000240 00000-0 14882-3 0 9997 2 26536 98.5066 57.2473 0009847 334.4191 25.6494 14.13741059551487 NOAA 17 1 27453U 02032A 25021.95682908 .00000541 00000-0 24610-3 0 9991 2 27453 98.7940 338.7913 0012366 38.0502 322.1549 14.25889055174128 NOAA 18 1 28654U 05018A 25021.88749916 .00000448 00000-0 26114-3 0 9994 2 28654 98.8556 102.8732 0014664 160.0826 200.0921 14.13493337 14079 NOAA 19 1 33591U 09005A 25021.94226278 .00000366 00000-0 21916-3 0 9992 2 33591 99.0184 85.7579 0014239 38.8425 321.3767 14.13265301822269 NPP 1 37849U 11061A 25021.89788275 .00000268 00000-0 14777-3 0 9999 2 37849 98.7451 322.7992 0001392 30.5034 329.6223 14.19542368685909